Location: Katherine
(14.4670°S, 132.2670°E)
Time: 14:23:23
(UTC+09:30)

ISS - Pass Details

Date: 18 February 2018
Orbit: 402 x 407 km, 51.6° (Epoch: 23 February)

Event Time Altitude Azimuth Distance (km) Brightness Sun altitude
Rises 20:45:18 0° 303° (WNW) 2,307 0.5 -22.9°
Reaches altitude 10° 20:47:33 10° 291° (WNW) 1,455 -0.4 -23.4°
Maximum altitude 20:50:23 27° 230° (SW) 821 -1.7 -24.1°
Enters shadow 20:51:38 21° 193° (SSW) 980 -1.6 -24.4°
